Weather Roundup
Issued by NWS

Home | Current Version | Previous Version | Graphics & Text | Print | Product List | Glossary Off
Versions: 1 2 3 4 5 6 7 8 9 10 11 12 13 14 15 16 17 18 19 20 21 22 23 24 25 26 27 28 29 30 31 32 33 34 35 36 37 38 39 40 41 42 43 44 45 46 47 48 49 50

567
NZUS93 KARX 290010
HRRWXR

CURRENT HOURLY OBSERVATIONS ACROSS
MUCH OF THE UPPER MISSISSIPPI VALLEY
NATIONAL WEATHER SERVICE LA CROSSE WI
700 PM CDT THU JUL 28 2016


...SOUTHEAST MINNESOTA...


CITY           SKY/WX    TMP DP  RH WIND       PRES   REMARKS
ROCHESTER      CLOUDY    66  64  93 N10       30.02S
ROCHESTER/MAYO CLOUDY    67  64  90 N6        30.02S
WINONA         CLOUDY    70  63  78 NE8       30.00R
AUSTIN         PTSUNNY   68  61  77 NE14G24   30.01R
ALBERT LEA     PTSUNNY   70  64  83 NE12      30.01S
DODGE CENTER   CLOUDY   N/A N/A N/A NE12G22   30.02S
PRESTON        CLOUDY    65  61  87 N7        30.01S
OWATONNA       PTSUNNY   68  63  83 NE5       30.02S
FARIBAULT      CLOUDY    72  63  73 N5        30.02F
$$

...ELSEWHERE IN MINNESOTA...


CITY           SKY/WX    TMP DP  RH WIND       PRES   REMARKS
MINNEAPOLIS    CLOUDY    74  58  57 NE12      30.03R
INTNL FALLS    MOSUNNY   75  51  43 NE3       30.07F
DULUTH         CLOUDY    68  50  52 E12       30.09R
RED WING       CLOUDY    70  64  83 E5        30.01R
REDWOOD FALLS  SUNNY     75  57  53 NE10      30.03S
MANKATO        CLOUDY    72  61  68 NE8       30.02R
WORTHINGTON    MOSUNNY   72  61  68 N9        30.04S
FAIRMONT       MOSUNNY   73  63  68 N9        30.01R
$$

...SOUTHWEST WISCONSIN...


CITY           SKY/WX    TMP DP  RH WIND       PRES   REMARKS
LA CROSSE      LGT RAIN  66  64  93 N9        29.96F FOG
PRAIRIE DU CHI CLOUDY    69  65  86 NW9       29.92F
BOSCOBEL       CLOUDY    73  67  81 N6        29.93R
LONE ROCK      PTSUNNY   73  66  78 NE8       29.93R
PLATTEVILLE    CLOUDY    73  69  87 NE16      29.93R
FORT MC COY    DRIZZLE   63  63  99 N8        29.98S
MAUSTON-NEW LI CLOUDY    69  65  86 NE5       29.96S
VIROQUA        CLOUDY    65  65 100 N9        29.97S
WIS DELLS      CLOUDY    70  63  79 NE9       29.95R
$$

...ELSEWHERE IN WISCONSIN...


CITY           SKY/WX    TMP DP  RH WIND       PRES   REMARKS
MILWAUKEE      PTSUNNY   69  64  84 NE16      29.93S
MADISON        CLOUDY    73  65  75 NE10      29.92S
GREEN BAY      CLOUDY    68  64  87 NE7       29.99R
EAU CLAIRE     CLOUDY    66  61  84 CALM      30.01S
BLACK RVR FLS  HVY RAIN  63  63 100 NE7       29.99F
MEDFORD        CLOUDY    65  65 100 CALM      30.03R
WAUSAU         CLOUDY    67  63  87 CALM      30.00S
WIS RAPIDS     CLOUDY    68  58  70 NE8       29.99F
MARSHFIELD     LGT RAIN  64  60  87 E5        30.00S
RICE LAKE      CLOUDY    71  59  66 N10       30.05R
$$

...NORTHEAST IOWA...


CITY           SKY/WX    TMP DP  RH WIND       PRES   REMARKS
WATERLOO       PTSUNNY   74  65  73 N13       29.94R
DUBUQUE        SUNNY     76  68  76 N14       29.91F
DECORAH        CLOUDY    64  64 100 N8G16     29.96F
MASON CITY     CLOUDY    70  64  81 NE13      30.01R
CHARLES CITY   CLOUDY    70  66  88 N12       29.98S
OELWEIN        MOSUNNY   72  66  83 N12       29.95S
$$

...ELSEWHERE IN IOWA...


CITY           SKY/WX    TMP DP  RH WIND       PRES   REMARKS
DES MOINES     MOSUNNY   79  62  56 N10       29.95S
IOWA CITY      SUNNY     80  67  64 NW8       29.92R
FORT DODGE     MOSUNNY   72  64  78 N5        30.00S
MARSHALLTOWN   SUNNY     76  66  71 N10       29.94S
CEDAR RAPIDS   SUNNY     76  68  76 NW10      29.91F
$$

...NORTHERN ILLINOIS...


CITY           SKY/WX    TMP DP  RH WIND       PRES   REMARKS
CHICAGO-OHARE  PTSUNNY   75  70  84 NE12      29.88R
CHICAGO-MIDWAY CLOUDY    77  71  82 E10       29.87S
MOLINE         MOSUNNY   83  66  56 NW12      29.88S
ROCKFORD       MOSUNNY   80  68  66 E6        29.90S
PEORIA         CLOUDY    79  71  76 SE6       29.89R
$$

NOTE: "FAIR" INDICATES FEW OR NO CLOUDS BELOW 12,000 FEET WITH NO
SIGNIFICANT WEATHER AND/OR OBSTRUCTIONS TO VISIBILITY. WIND
SPEEDS ARE IN MILES-PER-HOUR.




USA.gov is the U.S. government's official web portal to all federal, state and local government web resources and services.